Home   Weather   Limoges   Past weeks

Flag for France Past Weather in Limoges, Limousin, France — Yesterday and Last 2 Weeks

Now
54 °F

Overcast.


Feels Like: 54 °F
Forecast: 35 / 48 °F
Wind: 2 mph from North

Location: Limoges Airport

Current Time: Apr 25, 2017 at 12:42:19 pm

Latest Report: Apr 25, 2017 at 12:00 pm


Visibility: N/A

Pressure: 29.80 "Hg

Humidity: 82%

Dew Point: 48 °F

Location of LimogesLocation

Past Weather in Limoges — Graph

°F

Limoges Temperature Yesterday

Maximum temperature yesterday: 70 °F (at 4:00 pm)
Minimum temperature yesterday: 43 °F (at 7:30 am)
Average temperature yesterday: 57 °F

High & Low Weather Summary for the Past Weeks

 TemperatureHumidityPressure
High72 °F (Apr 10, 2:00 pm)93% (Apr 16, 4:00 am)30.45 "Hg (Apr 16, 4:00 am)
Low32 °F (Apr 20, 7:00 am)12% (Apr 21, 1:30 pm)29.80 "Hg (Apr 25, 6:30 am)
Average52 °F55%30.19 "Hg
* Reported Apr 10 11:00 am — Apr 25 11:30 am, Limoges, Weather by CustomWeather, © 2017

Note: Actual official high and low records may vary slightly from our data, if they occured in-between our weather recording intervals... More about our weather records

Advertising

Limoges Weather History for the Previous 24 Hours

Scroll right to see more
 ConditionsComfort  
Time TempWeatherWind HumidityBarometerVisibility
11:30 am
Tue, Apr 25
54 °FOvercast.2 mph82%29.80 "HgN/A
11:00 am52 °FOvercast.3 mph82%29.80 "HgN/A
10:30 am52 °FLow clouds.2 mph82%29.80 "HgN/A
10:00 am50 °FLow clouds.3 mph82%29.80 "HgN/A
9:30 am50 °FMostly cloudy.2 mph76%29.83 "HgN/A
9:00 am48 °FOvercast.2 mph71%29.83 "HgN/A
8:30 am46 °FPartly sunny.1 mph71%29.83 "HgN/A
7:30 am46 °FSunny.5 mph71%29.80 "Hg10 mi
7:00 am46 °FSunny.2 mph66%29.83 "Hg10 mi
6:30 am48 °FClear.9 mph62%29.80 "Hg10 mi
5:30 am48 °FClear.3 mph58%29.83 "Hg10 mi
4:30 am50 °FClear.3 mph54%29.83 "Hg10 mi
3:30 am52 °FClear.8 mph54%29.83 "Hg10 mi
3:00 am52 °FClear.6 mph54%29.86 "Hg10 mi
2:30 am52 °FClear.7 mph54%29.86 "Hg10 mi
2:00 am52 °FClear.7 mph54%29.86 "Hg10 mi
1:30 am52 °FClear.8 mph54%29.86 "Hg10 mi
12:30 am54 °FClear.8 mph54%29.86 "Hg10 mi
12:00 am55 °FClear.7 mph51%29.86 "Hg10 mi
11:30 pm
Mon, Apr 24
55 °FClear.7 mph55%29.89 "Hg10 mi
11:00 pm57 °FClear.7 mph51%29.89 "Hg10 mi
10:00 pm59 °FClear.6 mph51%29.89 "Hg10 mi
9:30 pm59 °FPassing clouds.5 mph51%29.89 "HgN/A
9:00 pm61 °FClear.5 mph48%29.89 "Hg10 mi
8:30 pm63 °FSunny.5 mph45%29.89 "Hg10 mi
8:00 pm64 °FPassing clouds.7 mph34%29.89 "HgN/A
7:30 pm66 °FPassing clouds.5 mph32%29.89 "HgN/A
7:00 pm68 °FSunny.8 mph26%29.89 "Hg10 mi
6:30 pm68 °FSunny.10 mph26%29.89 "Hg10 mi
6:00 pm70 °FPassing clouds.9 mph29%29.89 "HgN/A
5:30 pm70 °FPassing clouds.12 mph27%29.89 "HgN/A
5:00 pm70 °FPassing clouds.10 mph31%29.89 "HgN/A
4:30 pm70 °FPassing clouds.8 mph31%29.89 "HgN/A
4:00 pm70 °FPassing clouds.9 mph31%29.92 "HgN/A
3:30 pm68 °FPassing clouds.12 mph30%29.92 "HgN/A
3:00 pm68 °FPassing clouds.12 mph26%29.95 "HgN/A
2:30 pm68 °FPassing clouds.10 mph35%29.95 "HgN/A
2:00 pm66 °FSunny.5 mph40%29.95 "Hg10 mi
1:30 pm66 °FPassing clouds.7 mph37%29.95 "HgN/A
1:00 pm64 °FPassing clouds.5 mph46%29.98 "HgN/A
12:30 pm63 °FSunny.3 mph49%29.98 "Hg10 mi
12:00 pm61 °FPassing clouds.5 mph48%29.98 "HgN/A
Weather by CustomWeather, © 2017

See weather overviewHow to use our weather pages